Change the Weather History Date:

Tuesday, January 14, 2014

  Actual Average Record
Temperature  
Mean Temperature 44 °F -  
Max Temperature 46 °F 26 °F 55 °F (2005)
Min Temperature 41 °F 8 °F -13 °F (2004)
Degree Days  
Heating Degree Days 22    
Moisture  
Dew Point 42 °F    
Average Humidity 94    
Maximum Humidity 100    
Minimum Humidity 86    
Precipitation  
Precipitation 1.01 in - - ()
Sea Level Pressure  
Sea Level Pressure 29.72 in    
Wind  
Wind Speed 5 mph (SSW)    
Max Wind Speed 10 mph    
Max Gust Speed 18 mph    
Visibility 4 miles    
Events Rain    
Averages and records for this station are not official NWS values.
T = Trace of Precipitation, MM = Missing Value Source: NWS Daily Summary

Daily Weather History Graph

Daily Weather History Graph

Search for Another Location

Airport or City:

Trip Planner

Search our weather history database for the weather conditions in past years. The results will help you decide how hot, cold, wet, or windy it might be!

Date:

Astronomy

Jan. 14, 2014 Rise Set
Actual Time 7:10 AM EST 4:25 PM EST
Civil Twilight 6:38 AM EST 4:57 PM EST
Nautical Twilight 6:02 AM EST 5:33 PM EST
Astronomical Twilight 5:28 AM EST 6:07 PM EST
Moon 3:29 PM EST (1/14) 5:42 AM EST (1/14)
Length of Visible Light 10h 19m
Length of Day
9h 14m
Waxing Gibbous, 98% of the Moon is Illuminated
Jan 14
Waxing Gibbous
Jan 15
Full
Jan 24
Last Quarter
Jan 30
New
Feb 6
First Quarter

Hourly Weather History & Observations

Time (EST) Temp. Windchill Dew Point Humidity Pressure Visibility Wind Dir Wind Speed Gust Speed Precip Events Conditions
12:53 AM 45.0 °F 40.1 °F 41.0 °F 86% 29.90 in 10.0 mi SSW 9.2 mph - N/A   Partly Cloudy
1:53 AM 45.0 °F 40.1 °F 41.0 °F 86% 29.88 in 10.0 mi SSW 9.2 mph - N/A   Partly Cloudy
2:28 AM 45.0 °F 39.7 °F 41.0 °F 86% 29.88 in 10.0 mi SSW 10.4 mph - N/A   Mostly Cloudy
2:53 AM 45.0 °F 40.6 °F 41.0 °F 86% 29.88 in 10.0 mi SSW 8.1 mph - N/A   Scattered Clouds
3:53 AM 45.0 °F 42.6 °F 42.1 °F 90% 29.86 in 10.0 mi South 4.6 mph - N/A   Partly Cloudy
4:53 AM 45.0 °F 41.2 °F 42.1 °F 90% 29.84 in 10.0 mi SSW 6.9 mph - N/A   Scattered Clouds
5:53 AM 44.1 °F 41.5 °F 42.1 °F 93% 29.82 in 10.0 mi Variable 4.6 mph - N/A   Partly Cloudy
6:53 AM 46.0 °F 41.0 °F 43.0 °F 89% 29.83 in 10.0 mi SSW 10.4 mph 18.4 mph N/A   Partly Cloudy
7:53 AM 46.9 °F - 43.0 °F 86% 29.83 in 6.0 mi South 8.1 mph - 0.00 in Rain Light Rain
8:53 AM 46.9 °F - 44.1 °F 90% 29.83 in 5.0 mi SSW 6.9 mph - 0.03 in Rain Light Rain
9:53 AM 46.9 °F - 44.1 °F 90% 29.84 in 5.0 mi SSW 10.4 mph - 0.02 in Rain Light Rain
10:53 AM 46.9 °F - 44.1 °F 90% 29.81 in 8.0 mi South 5.8 mph - 0.02 in Rain Light Rain
11:10 AM 46.9 °F - 44.1 °F 90% 29.80 in 8.0 mi SSW 9.2 mph - 0.01 in Rain Light Rain
11:25 AM 46.0 °F 41.9 °F 44.1 °F 93% 29.79 in 6.0 mi SSW 8.1 mph - 0.01 in Rain Light Rain
11:48 AM 46.4 °F 43.5 °F 44.6 °F 93% 29.78 in 4.0 mi South 5.8 mph - 0.03 in Rain Light Rain
11:53 AM 45.0 °F 40.6 °F 44.1 °F 97% 29.78 in 4.0 mi South 8.1 mph - 0.04 in Rain Light Rain
12:35 PM 45.0 °F 40.1 °F 43.0 °F 93% 29.78 in 5.0 mi SSW 9.2 mph - 0.03 in Rain Light Rain
12:53 PM 45.0 °F 39.7 °F 43.0 °F 93% 29.78 in 4.0 mi SSW 10.4 mph 17.3 mph 0.04 in Rain Light Rain
1:02 PM 45.0 °F 41.2 °F 43.0 °F 93% 29.77 in 4.0 mi SSW 6.9 mph - 0.01 in Rain Light Rain
1:50 PM 46.4 °F 42.4 °F 42.8 °F 87% 29.77 in 3.0 mi SSW 8.1 mph - 0.06 in Rain Light Rain
1:53 PM 46.0 °F 43.9 °F 44.1 °F 93% 29.76 in 3.0 mi SW 4.6 mph - 0.07 in Rain Light Rain
2:53 PM 45.0 °F 43.5 °F 44.1 °F 97% 29.74 in 4.0 mi SSW 3.5 mph - 0.06 in Rain Light Rain
3:33 PM 44.1 °F - 43.0 °F 96% 29.74 in 2.5 mi Calm Calm - 0.06 in Rain Light Rain
3:40 PM 44.1 °F - 43.0 °F 96% 29.73 in 3.0 mi Calm Calm - 0.06 in Rain Light Rain
3:49 PM 44.6 °F - 42.8 °F 93% 29.73 in 1.8 mi Calm Calm - 0.08 in Rain Light Rain
3:53 PM 44.1 °F - 43.0 °F 96% 29.74 in 1.5 mi Calm Calm - 0.08 in Rain Light Rain
4:00 PM 43.0 °F - 42.1 °F 97% 29.73 in 1.0 mi Calm Calm - 0.01 in Rain Light Rain
4:07 PM 43.0 °F - 42.1 °F 97% 29.72 in 0.8 mi Calm Calm - 0.02 in Rain Light Rain
4:22 PM 43.0 °F - 42.1 °F 97% 29.72 in 1.2 mi Calm Calm - 0.03 in Rain Light Rain
4:41 PM 42.1 °F - 42.1 °F 100% 29.71 in 0.8 mi Calm Calm - 0.05 in Rain Light Rain
4:53 PM 42.1 °F - 41.0 °F 96% 29.70 in 1.0 mi Calm Calm - 0.07 in Rain Light Rain
5:01 PM 42.1 °F - 41.0 °F 96% 29.69 in 0.8 mi Calm Calm - 0.01 in Rain Light Rain
5:24 PM 41.0 °F - 39.9 °F 96% 29.69 in 1.0 mi Calm Calm - 0.05 in Rain Light Rain
5:35 PM 42.1 °F - 41.0 °F 96% 29.67 in 1.0 mi Calm Calm - 0.07 in Rain Light Rain
5:49 PM 42.8 °F - 42.8 °F 100% 29.67 in 1.8 mi Calm Calm - 0.09 in Rain Light Rain
5:53 PM 41.0 °F 38.0 °F 41.0 °F 100% 29.69 in 1.8 mi West 4.6 mph - 0.09 in Rain Light Rain
5:58 PM 41.0 °F 39.0 °F 39.9 °F 96% 29.67 in 1.2 mi Variable 3.5 mph - 0.02 in Rain Light Rain
6:02 PM 42.1 °F 40.2 °F 41.0 °F 96% 29.69 in 1.5 mi WSW 3.5 mph - 0.03 in Rain Rain
6:14 PM 42.1 °F - 42.1 °F 100% 29.69 in 1.5 mi Calm Calm - 0.05 in Rain Rain
6:20 PM 42.1 °F - 41.0 °F 96% 29.68 in 1.0 mi Calm Calm - 0.06 in Rain Light Rain
6:27 PM 41.0 °F - 41.0 °F 100% 29.67 in 0.8 mi Calm Calm - 0.08 in Rain Light Rain
6:45 PM 42.1 °F - 41.0 °F 96% 29.65 in 1.5 mi Calm Calm - 0.11 in Rain Rain
6:53 PM 41.0 °F - 41.0 °F 100% 29.65 in 1.2 mi Calm Calm - 0.13 in Rain Light Rain
7:05 PM 41.0 °F - 39.9 °F 96% 29.65 in 1.5 mi Calm Calm - 0.02 in Rain Rain
7:10 PM 42.1 °F - 41.0 °F 96% 29.65 in 2.0 mi Calm Calm - 0.03 in Rain Rain
7:15 PM 42.1 °F - 42.1 °F 100% 29.65 in 4.0 mi Calm Calm - 0.05 in Rain Rain
7:22 PM 41.0 °F 39.0 °F 41.0 °F 100% 29.65 in 1.8 mi NW 3.5 mph - 0.06 in Rain Rain
7:32 PM 41.0 °F - 39.9 °F 96% 29.64 in 2.5 mi Calm Calm - 0.08 in Rain Light Rain
7:35 PM 43.0 °F - 41.0 °F 93% 29.64 in 3.0 mi Calm Calm - 0.09 in Rain Light Rain
7:39 PM 43.0 °F - 42.1 °F 97% 29.65 in 4.0 mi Calm Calm - 0.10 in Rain Rain
7:50 PM 42.8 °F 41.1 °F 41.0 °F 93% 29.63 in 3.0 mi NNE 3.5 mph - 0.12 in Rain Rain
7:53 PM 42.1 °F - 41.0 °F 96% 29.64 in 2.5 mi Calm Calm - 0.13 in Rain Light Rain
8:02 PM 42.1 °F - 41.0 °F 96% 29.62 in 4.0 mi Calm Calm - 0.01 in Rain Light Rain
8:46 PM 42.1 °F 40.2 °F 41.0 °F 96% 29.64 in 7.0 mi WSW 3.5 mph - 0.06 in Rain Light Rain
8:53 PM 42.1 °F - 41.0 °F 96% 29.64 in 5.0 mi Calm Calm - 0.07 in Rain Light Rain
9:00 PM 41.0 °F - 41.0 °F 100% 29.64 in 4.0 mi Calm Calm - 0.01 in Rain Light Rain
9:26 PM 42.1 °F - 41.0 °F 96% 29.62 in 6.0 mi Calm Calm - 0.05 in Rain Light Rain
9:32 PM 42.1 °F - 41.0 °F 96% 29.61 in 5.0 mi Calm Calm - 0.06 in Rain Rain
9:53 PM 42.1 °F 40.2 °F 39.9 °F 92% 29.61 in 9.0 mi Variable 3.5 mph - 0.09 in Rain Light Rain
10:07 PM 42.1 °F 40.2 °F 41.0 °F 96% 29.62 in 5.0 mi Variable 3.5 mph - 0.02 in Rain Light Rain
10:53 PM 41.0 °F - 39.9 °F 96% 29.56 in 10.0 mi Calm Calm - 0.06 in Rain Light Rain
11:53 PM 41.0 °F 37.1 °F 39.9 °F 96% 29.64 in 10.0 mi WNW 5.8 mph - 0.01 in Rain Light Rain